GW5827 Weather Reports


time (UTC)temp
C
wind
direction
speed
KPH
gust
KPH
rain 1hr
cm
rain 24hr
cm
rain mn
cm
humidity
%
barometer
mb
20260906145531 30 152 1.6 1.6 0.00 0.00 0.00 64 1015.6
20260906145026 29 172 0.0 1.6 0.00 0.00 0.00 64 1015.4
20260906144520 29 159 1.6 1.6 0.00 0.00 0.00 64 1015.4
20260906144015 30 140 1.6 3.2 0.00 0.00 0.00 65 1015.5
20260906143510 29 183 1.6 3.2 0.00 0.00 0.00 66 1015.4
20260906143008 29 158 1.6 3.2 0.00 0.00 0.00 66 1015.5
20260906142506 30 184 1.6 3.2 0.00 0.00 0.00 64 1015.3
20260906142001 29 188 1.6 3.2 0.00 0.00 0.00 67 1015.4
20260906141455 29 146 1.6 1.6 0.00 0.00 0.00 66 1015.3
20260906140951 28 171 0.0 1.6 0.00 0.00 0.00 67 1015.2
20260906140445 28 151 0.0 1.6 0.00 0.00 0.00 69 1015.2
20260906135943 27 177 3.2 3.2 0.00 0.00 0.00 71 1015.1
20260906135442 28 166 1.6 3.2 0.00 0.00 0.00 71 1015.3
20260906134938 28 160 0.0 1.6 0.00 0.00 0.00 70 1015.4
20260906134433 28 159 1.6 1.6 0.00 0.00 0.00 70 1015.2
20260906133933 28 139 0.0 0.0 0.00 0.00 0.00 70 1015.3
20260906133428 27 147 0.0 1.6 0.00 0.00 0.00 71 1015.5
20260906132924 27 160 1.6 1.6 0.00 0.00 0.00 73 1015.6
20260906132419 27 157 0.0 0.0 0.00 0.00 0.00 76 1015.5
20260906131915 27 154 1.6 1.6 0.00 0.00 0.00 75 1015.5
20260906131410 27 71 0.0 3.2 0.00 0.00 0.00 75 1015.4
20260906130906 26 179 1.6 1.6 0.00 0.00 0.00 76 1015.3
20260906130405 26 159 0.0 1.6 0.00 0.00 0.00 78 1015.3
20260906125904 26 175 0.0 1.6 0.00 0.00 0.00 78 1015.2
20260906125401 26 167 0.0 0.0 0.00 0.00 0.00 79 1015.2
20260906124856 26 165 0.0 0.0 0.00 0.00 0.00 80 1015.4
20260906124352 26 168 3.2 3.2 0.00 0.00 0.00 80 1015.2
20260906123851 25 160 0.0 0.0 0.00 0.00 0.00 82 1015.1
20260906123346 25 166 0.0 0.0 0.00 0.00 0.00 84 1015.2
20260906122846 25 161 0.0 0.0 0.00 0.00 0.00 85 1015.0
20260906122341 24 162 0.0 0.0 0.00 0.00 0.00 86 1014.9
20260906121838 24 166 0.0 0.0 0.00 0.00 0.00 86 1014.6
20260906121333 24 161 0.0 0.0 0.00 0.00 0.00 87 1014.6
20260906120830 23 157 0.0 0.0 0.00 0.00 0.00 88 1014.5
20260906120325 23 162 0.0 0.0 0.00 0.00 0.00 88 1014.6
20260906115821 23 156 0.0 0.0 0.00 0.00 0.00 89 1014.6
20260906115316 23 156 0.0 0.0 0.00 0.00 0.00 88 1014.6
20260906114816 23 156 0.0 0.0 0.00 0.00 0.00 88 1014.4
20260906114311 23 156 0.0 0.0 0.00 0.00 0.00 88 1014.5
20260906113812 23 160 0.0 0.0 0.00 0.00 0.00 88 1014.5
20260906113311 23 160 0.0 0.0 0.00 0.00 0.00 87 1014.5
20260906112806 23 160 0.0 0.0 0.00 0.00 0.00 87 1014.5
20260906112306 24 160 0.0 0.0 0.00 0.00 0.00 87 1014.4
20260906111802 24 160 0.0 0.0 0.00 0.00 0.00 86 1014.5
20260906111301 24 160 0.0 0.0 0.00 0.00 0.00 86 1014.4
20260906110757 24 160 0.0 0.0 0.00 0.00 0.00 85 1014.5
20260906110252 24 160 0.0 0.0 0.00 0.00 0.00 85 1014.4
20260906105751 25 161 0.0 0.0 0.00 0.00 0.00 84 1014.0
20260906105247 25 162 0.0 0.0 0.00 0.00 0.00 84 1014.2
20260906104743 25 157 0.0 0.0 0.00 0.00 0.00 83 1014.1
20260906104241 25 157 0.0 0.0 0.00 0.00 0.00 83 1014.3
20260906103739 25 163 0.0 0.0 0.00 0.00 0.00 81 1014.3
20260906103233 25 163 0.0 0.0 0.00 0.00 0.00 81 1014.1
20260906102729 25 158 0.0 0.0 0.00 0.00 0.00 81 1013.9
20260906102228 25 170 1.6 1.6 0.00 0.00 0.00 80 1014.0
20260906101724 25 163 0.0 0.0 0.00 0.00 0.00 81 1014.2
20260906101218 26 162 0.0 0.0 0.00 0.00 0.00 81 1013.8
20260906100714 26 170 1.6 1.6 0.00 0.00 0.00 80 1013.8
20260906100214 26 161 0.0 0.0 0.00 0.00 0.00 80 1013.9
20260906095714 26 165 1.6 1.6 0.00 0.00 0.00 80 1013.8
20260906095210 26 180 1.6 3.2 0.00 0.00 0.00 81 1014.0
20260906094708 26 172 1.6 1.6 0.00 0.00 0.00 80 1013.7
20260906094204 26 164 0.0 1.6 0.00 0.00 0.00 81 1013.9
20260906093701 26 161 0.0 0.0 0.00 0.00 0.00 81 1013.8
20260906093156 26 167 0.0 0.0 0.00 0.00 0.00 81 1013.6
20260906092651 26 163 0.0 1.6 0.00 0.00 0.00 80 1013.8
20260906092144 26 166 0.0 1.6 0.00 0.00 0.00 80 1013.6
20260906091641 26 166 0.0 0.0 0.00 0.00 0.00 80 1013.6
20260906091137 26 179 0.0 0.0 0.00 0.00 0.00 80 1013.7
20260906090632 26 160 0.0 0.0 0.00 0.00 0.00 81 1013.5
20260906090132 26 165 0.0 0.0 0.00 0.00 0.00 80 1013.4
20260906085631 26 164 0.0 0.0 0.00 0.00 0.00 80 1013.4
20260906085125 26 165 0.0 0.0 0.00 0.00 0.00 79 1013.4
20260906084620 27 152 0.0 0.0 0.00 0.00 0.00 79 1013.1
20260906084119 27 158 0.0 0.0 0.00 0.00 0.00 78 1013.2
20260906083615 27 155 0.0 0.0 0.00 0.00 0.00 78 1013.2
20260906083114 27 161 0.0 0.0 0.00 0.00 0.00 77 1013.3
20260906082610 27 166 1.6 1.6 0.00 0.00 0.00 77 1013.5
20260906082106 27 195 0.0 1.6 0.00 0.00 0.00 78 1013.4
20260906081602 27 126 4.8 6.4 0.00 0.00 0.00 78 1013.0
20260906081056 27 225 3.2 4.8 0.00 0.00 0.00 80 1013.1
20260906080553 27 153 0.0 1.6 0.00 0.00 0.00 80 1013.2
20260906080049 27 161 0.0 0.0 0.00 0.00 0.00 80 1013.0
20260906075549 27 157 0.0 0.0 0.00 0.00 0.00 80 1013.3
20260906075044 27 164 0.0 0.0 0.00 0.00 0.00 80 1013.2
20260906074538 27 171 1.6 3.2 0.00 0.00 0.00 81 1013.1
20260906074037 27 170 1.6 3.2 0.00 0.00 0.00 81 1013.1
20260906073532 27 159 0.0 0.0 0.00 0.00 0.00 80 1013.0
20260906073028 27 165 3.2 4.8 0.00 0.00 0.00 81 1013.0
20260906072523 27 159 0.0 0.0 0.00 0.00 0.00 80 1013.0
20260906072019 27 161 0.0 0.0 0.00 0.00 0.00 80 1012.9
20260906071515 27 175 1.6 1.6 0.00 0.00 0.00 80 1012.9
20260906071010 28 153 0.0 0.0 0.00 0.00 0.00 80 1013.0
20260906070506 28 155 0.0 0.0 0.00 0.00 0.00 79 1012.9
20260906070002 28 160 0.0 0.0 0.00 0.00 0.00 79 1013.1
20260906065501 28 151 0.0 0.0 0.00 0.00 0.00 78 1013.0
20260906064957 28 177 0.0 1.6 0.00 0.00 0.00 78 1013.2
20260906064453 28 190 1.6 1.6 0.00 0.00 0.00 79 1013.2
20260906063947 27 149 1.6 3.2 0.00 0.00 0.00 80 1013.3
20260906063443 27 179 1.6 3.2 0.00 0.00 0.00 80 1013.5
20260906062943 27 162 0.0 0.0 0.00 0.00 0.00 81 1013.2
20260906062438 27 141 0.0 0.0 0.00 0.00 0.00 82 1013.2
20260906061933 26 155 0.0 0.0 0.00 0.00 0.00 83 1013.2
20260906061429 26 147 0.0 0.0 0.00 0.00 0.00 84 1013.1
20260906060923 26 162 0.0 0.0 0.00 0.00 0.00 84 1013.3
20260906060421 26 155 0.0 0.0 0.00 0.00 0.00 84 1013.3
20260906055917 26 155 0.0 0.0 0.00 0.00 0.00 83 1013.4
20260906055412 26 155 0.0 0.0 0.00 0.00 0.00 83 1013.4
20260906054908 26 155 0.0 0.0 0.00 0.00 0.00 83 1013.3
20260906054402 26 155 0.0 0.0 0.00 0.00 0.00 83 1013.3
20260906053858 26 155 0.0 0.0 0.00 0.00 0.00 83 1013.2
20260906053354 26 156 0.0 0.0 0.00 0.00 0.00 82 1013.1
20260906052850 26 156 0.0 0.0 0.00 0.00 0.00 82 1013.4
20260906052346 26 156 0.0 0.0 0.00 0.00 0.00 82 1013.1
20260906051843 27 155 0.0 0.0 0.00 0.00 0.00 81 1013.2
20260906051342 27 156 0.0 0.0 0.00 0.00 0.00 81 1013.3
20260906050838 27 155 0.0 0.0 0.00 0.00 0.00 81 1013.3
20260906050333 27 156 0.0 0.0 0.00 0.00 0.00 81 1013.1
20260906045831 27 156 0.0 0.0 0.00 0.00 0.00 80 1012.9
20260906045326 27 156 0.0 0.0 0.00 0.00 0.00 80 1012.9
20260906044823 27 156 0.0 0.0 0.00 0.00 0.00 79 1013.0
20260906044317 27 156 0.0 0.0 0.00 0.00 0.00 79 1012.9
20260906043813 27 157 0.0 0.0 0.00 0.00 0.00 78 1012.9
20260906043309 27 156 0.0 0.0 0.00 0.00 0.00 78 1013.3
20260906042808 27 156 0.0 0.0 0.00 0.00 0.00 78 1013.0
20260906042308 27 157 0.0 0.0 0.00 0.00 0.00 77 1013.0
20260906041804 27 156 0.0 0.0 0.00 0.00 0.00 77 1013.1
20260906041304 27 157 0.0 0.0 0.00 0.00 0.00 77 1013.0
20260906040759 27 153 0.0 0.0 0.00 0.00 0.00 77 1012.8
20260906040254 27 153 0.0 0.0 0.00 0.00 0.00 77 1012.6
20260906035749 27 154 0.0 0.0 0.00 0.00 0.00 77 1012.5
20260906035245 27 154 0.0 0.0 0.00 0.00 0.00 77 1012.6
20260906034740 27 154 0.0 0.0 0.00 0.00 0.00 77 1012.5
20260906034235 27 157 0.0 0.0 0.00 0.00 0.00 76 1012.6
20260906033731 27 157 0.0 0.0 0.00 0.00 0.00 76 1012.6
20260906033230 27 154 0.0 0.0 0.00 0.00 0.00 76 1012.6
20260906032727 28 151 0.0 0.0 0.00 0.00 0.00 76 1012.5
20260906032227 28 154 0.0 0.0 0.00 0.00 0.00 75 1012.5
20260906031722 28 155 0.0 0.0 0.00 0.00 0.00 75 1012.5
20260906031218 28 152 0.0 0.0 0.00 0.00 0.00 75 1012.2
20260906030717 28 154 0.0 0.0 0.00 0.00 0.00 75 1012.3
20260906030213 28 155 0.0 0.0 0.00 0.00 0.00 74 1012.5
20260906025712 28 156 0.0 0.0 0.00 0.00 0.00 74 1012.1
20260906025212 28 155 0.0 0.0 0.00 0.00 0.00 73 1012.1
20260906024711 28 155 0.0 0.0 0.00 0.00 0.00 73 1012.1
20260906024210 28 155 0.0 0.0 0.00 0.00 0.00 72 1012.1
20260906023707 28 155 0.0 0.0 0.00 0.00 0.00 72 1012.1
20260906023206 28 155 0.0 0.0 0.00 0.00 0.00 71 1011.9
20260906022702 28 155 0.0 0.0 0.00 0.00 0.00 71 1011.8
20260906022157 28 155 0.0 0.0 0.00 0.00 0.00 70 1011.8
20260906021653 28 155 0.0 0.0 0.00 0.00 0.00 69 1011.5
20260906021152 29 155 0.0 0.0 0.00 0.00 0.00 69 1011.6
20260906020647 29 155 0.0 0.0 0.00 0.00 0.00 68 1011.5
20260906020141 29 156 0.0 0.0 0.00 0.00 0.00 68 1011.4
20260906015636 30 155 0.0 0.0 0.00 0.00 0.00 67 1011.4
20260906015135 30 155 0.0 0.0 0.00 0.00 0.00 66 1011.3
20260906014634 30 155 0.0 0.0 0.00 0.00 0.00 66 1011.3
20260906014131 30 155 0.0 0.0 0.00 0.00 0.00 65 1011.1
20260906013626 30 155 0.0 0.0 0.00 0.00 0.00 64 1011.1
20260906013121 30 155 0.0 0.0 0.00 0.00 0.00 64 1011.1
20260906012616 30 153 0.0 0.0 0.00 0.00 0.00 63 1011.1
20260906012116 30 153 0.0 0.0 0.00 0.00 0.00 62 1011.1
20260906011613 31 153 0.0 0.0 0.00 0.00 0.00 61 1010.9
20260906011112 31 153 0.0 0.0 0.00 0.00 0.00 61 1011.0
20260906010608 31 156 0.0 0.0 0.00 0.00 0.00 59 1010.9
20260906010104 31 155 0.0 0.0 0.00 0.00 0.00 58 1010.8
20260906005603 32 156 0.0 0.0 0.00 0.00 0.00 57 1010.6
20260906005103 32 158 0.0 0.0 0.00 0.00 0.00 56 1010.7
20260906004602 32 155 0.0 0.0 0.00 0.00 0.00 55 1010.7
20260906004057 33 155 0.0 0.0 0.00 0.00 0.00 54 1010.5
20260906003552 33 156 0.0 0.0 0.00 0.00 0.00 52 1010.4
20260906003048 34 156 0.0 0.0 0.00 0.00 0.00 50 1010.6
20260906002542 34 160 0.0 0.0 0.00 0.00 0.00 48 1010.5
20260906002037 35 161 0.0 0.0 0.00 0.00 0.00 47 1010.6
20260906001533 35 162 0.0 0.0 0.00 0.00 0.00 47 1010.5
20260906001032 35 169 0.0 0.0 0.00 0.00 0.00 47 1010.7
20260906000529 35 163 0.0 0.0 0.00 0.00 0.00 46 1010.7
20260906000024 35 162 0.0 0.0 0.00 0.00 0.00 46 1010.5
20260905235523 35 161 0.0 0.0 0.00 0.00 0.00 46 1010.7
20260905235019 35 163 0.0 0.0 0.00 0.00 0.00 45 1010.6
20260905234514 35 160 0.0 0.0 0.00 0.00 0.00 45 1010.6
20260905234008 36 159 0.0 0.0 0.00 0.00 0.00 45 1010.7
20260905233503 36 162 0.0 0.0 0.00 0.00 0.00 44 1010.6
20260905233002 36 165 0.0 0.0 0.00 0.00 0.00 45 1010.7
20260905232458 36 169 0.0 0.0 0.00 0.00 0.00 43 1010.7
20260905231954 36 188 1.6 1.6 0.00 0.00 0.00 44 1010.8
20260905231449 36 166 1.6 1.6 0.00 0.00 0.00 44 1010.9
20260905230946 36 165 0.0 0.0 0.00 0.00 0.00 44 1011.0
20260905230444 36 162 0.0 0.0 0.00 0.00 0.00 44 1010.9
20260905225942 36 170 3.2 3.2 0.00 0.00 0.00 44 1011.0
20260905225438 36 166 0.0 0.0 0.00 0.00 0.00 44 1010.8
20260905224933 36 182 1.6 1.6 0.00 0.00 0.00 44 1010.7
20260905224429 36 159 0.0 0.0 0.00 0.00 0.00 45 1010.7
20260905223928 36 158 0.0 0.0 0.00 0.00 0.00 44 1010.5
20260905223426 36 164 0.0 0.0 0.00 0.00 0.00 45 1010.5
20260905222926 36 169 0.0 0.0 0.00 0.00 0.00 44 1010.6
20260905222426 36 163 0.0 0.0 0.00 0.00 0.00 45 1010.7
20260905221921 36 159 0.0 0.0 0.00 0.00 0.00 46 1010.7
20260905221418 36 165 0.0 0.0 0.00 0.00 0.00 46 1010.6
20260905220914 36 155 0.0 0.0 0.00 0.00 0.00 44 1010.7
20260905220410 36 162 1.6 1.6 0.00 0.00 0.00 43 1010.8
20260905215908 36 156 0.0 0.0 0.00 0.00 0.00 44 1010.8
20260905215404 36 157 0.0 0.0 0.00 0.00 0.00 43 1011.0
20260905214900 36 161 1.6 1.6 0.00 0.00 0.00 41 1010.9
20260905214356 36 176 1.6 1.6 0.00 0.00 0.00 42 1010.9
20260905213851 36 157 0.0 1.6 0.00 0.00 0.00 41 1010.8
20260905213348 36 149 1.6 3.2 0.00 0.00 0.00 41 1010.7
20260905212847 36 162 0.0 0.0 0.00 0.00 0.00 40 1010.9
20260905212342 36 152 0.0 0.0 0.00 0.00 0.00 41 1010.7
20260905211841 36 160 0.0 0.0 0.00 0.00 0.00 42 1010.7
20260905211337 35 156 0.0 0.0 0.00 0.00 0.00 42 1010.9
20260905210834 35 152 0.0 0.0 0.00 0.00 0.00 43 1010.9
20260905210333 34 161 0.0 0.0 0.00 0.00 0.00 43 1010.8
20260905205833 34 157 1.6 1.6 0.00 0.00 0.00 43 1011.0
20260905205333 33 138 1.6 1.6 0.00 0.00 0.00 43 1011.0
20260905204832 33 155 0.0 1.6 0.00 0.00 0.00 45 1011.1
20260905204328 33 153 1.6 3.2 0.00 0.00 0.00 44 1011.2
20260905203827 33 166 4.8 4.8 0.00 0.00 0.00 42 1011.4
20260905203323 35 152 6.4 9.7 0.00 0.00 0.00 39 1011.4
20260905202818 37 187 4.8 6.4 0.00 0.00 0.00 41 1011.2
20260905202313 37 163 1.6 1.6 0.00 0.00 0.00 39 1011.3
20260905201809 37 173 1.6 1.6 0.00 0.00 0.00 38 1011.2
20260905201305 38 170 1.6 1.6 0.00 0.00 0.00 38 1011.3
20260905200804 38 163 0.0 1.6 0.00 0.00 0.00 37 1011.2
20260905200301 38 169 3.2 4.8 0.00 0.00 0.00 36 1011.2
20260905195758 38 159 1.6 1.6 0.00 0.00 0.00 35 1011.1
20260905195254 38 160 0.0 1.6 0.00 0.00 0.00 37 1011.3
20260905194749 38 164 0.0 0.0 0.00 0.00 0.00 36 1011.2
20260905194249 38 275 6.4 6.4 0.00 0.00 0.00 35 1011.4
20260905193748 39 185 1.6 1.6 0.00 0.00 0.00 36 1011.4
20260905193243 38 153 1.6 3.2 0.00 0.00 0.00 37 1011.7
20260905192738 38 193 3.2 3.2 0.00 0.00 0.00 37 1011.7
20260905192235 38 173 3.2 4.8 0.00 0.00 0.00 38 1011.7
20260905191735 38 163 0.0 1.6 0.00 0.00 0.00 36 1011.8
20260905191233 38 175 1.6 3.2 0.00 0.00 0.00 37 1011.8
20260905190732 38 160 1.6 1.6 0.00 0.00 0.00 36 1011.8
20260905190231 39 171 3.2 4.8 0.00 0.00 0.00 35 1011.9
20260905185730 38 166 0.0 1.6 0.00 0.00 0.00 35 1011.9
20260905185225 39 191 4.8 6.4 0.00 0.00 0.00 34 1011.9
20260905184725 40 182 3.2 3.2 0.00 0.00 0.00 34 1011.9
20260905184224 40 143 1.6 1.6 0.00 0.00 0.00 35 1012.1
20260905183723 40 213 3.2 4.8 0.00 0.00 0.00 36 1012.0
20260905183219 40 162 1.6 3.2 0.00 0.00 0.00 37 1012.2
20260905182718 40 181 1.6 1.6 0.00 0.00 0.00 38 1012.1
20260905182218 40 158 0.0 0.0 0.00 0.00 0.00 38 1012.3
20260905181714 40 207 3.2 4.8 0.00 0.00 0.00 38 1012.6
20260905181213 40 158 1.6 1.6 0.00 0.00 0.00 38 1012.2
20260905180707 40 155 0.0 0.0 0.00 0.00 0.00 39 1012.6
20260905180203 40 156 0.0 0.0 0.00 0.00 0.00 40 1012.6
20260905175701 40 166 0.0 1.6 0.00 0.00 0.00 38 1012.7
20260905175157 39 168 0.0 1.6 0.00 0.00 0.00 39 1012.5
20260905174652 38 183 1.6 1.6 0.00 0.00 0.00 39 1012.7
20260905174148 38 182 1.6 3.2 0.00 0.00 0.00 40 1012.9
20260905173644 38 189 3.2 4.8 0.00 0.00 0.00 39 1012.9
20260905173140 39 173 1.6 1.6 0.00 0.00 0.00 38 1012.9
20260905172639 39 158 0.0 1.6 0.00 0.00 0.00 39 1012.9
20260905172138 38 169 0.0 1.6 0.00 0.00 0.00 42 1013.0
20260905171635 39 163 3.2 3.2 0.00 0.00 0.00 42 1013.2
20260905171131 39 155 0.0 1.6 0.00 0.00 0.00 41 1013.3
20260905170627 38 162 0.0 1.6 0.00 0.00 0.00 42 1013.1
20260905170123 38 177 3.2 3.2 0.00 0.00 0.00 43 1013.1
20260905165617 38 161 1.6 1.6 0.00 0.00 0.00 44 1013.2
20260905165112 38 165 1.6 1.6 0.00 0.00 0.00 45 1013.2
20260905164608 38 207 3.2 3.2 0.00 0.00 0.00 42 1013.5
20260905164106 37 156 1.6 1.6 0.00 0.00 0.00 45 1013.5
20260905163603 38 164 1.6 3.2 0.00 0.00 0.00 44 1013.5
20260905163059 37 189 1.6 3.2 0.00 0.00 0.00 45 1013.5
20260905162555 37 178 1.6 3.2 0.00 0.00 0.00 44 1013.5
20260905162055 37 151 1.6 1.6 0.00 0.00 0.00 46 1013.5
20260905161555 37 168 3.2 3.2 0.00 0.00 0.00 45 1013.5
20260905161053 37 153 3.2 3.2 0.00 0.00 0.00 46 1013.5
20260905160552 36 160 1.6 3.2 0.00 0.00 0.00 46 1013.6
20260905160051 37 186 1.6 3.2 0.00 0.00 0.00 47 1013.8
20260905155551 36 153 0.0 0.0 0.00 0.00 0.00 48 1013.6
20260905155050 36 152 3.2 3.2 0.00 0.00 0.00 47 1013.8
20260905154545 36 164 1.6 1.6 0.00 0.00 0.00 50 1013.7
20260905154041 36 176 1.6 1.6 0.00 0.00 0.00 50 1013.6
20260905153537 35 170 1.6 1.6 0.00 0.00 0.00 51 1013.9
20260905153036 35 152 1.6 1.6 0.00 0.00 0.00 51 1013.8
20260905152531 35 157 0.0 1.6 0.00 0.00 0.00 53 1013.7
20260905152026 35 142 3.2 4.8 0.00 0.00 0.00 51 1013.7
20260905151521 34 153 3.2 4.8 0.00 0.00 0.00 52 1013.7
20260905151016 34 152 0.0 0.0 0.00 0.00 0.00 54 1013.8
20260905150512 35 179 4.8 4.8 0.00 0.00 0.00 52 1013.8
20260905150010 35 189 1.6 3.2 0.00 0.00 0.00 51 1013.6